Time,TemperatureF,DewpointF,PressureIn,WindDirection,WindDirectionDegrees,WindSpeedMPH,WindSpeedGustMPH,Humidity,HourlyPrecipIn,Conditions,Clouds,dailyrainin,SoftwareType,DateUTC
2013-02-16 00:02:00,38.0,18.0,30.51,NNE,33,3.0,4.0,44,0.00,,,-99.99,,2013-02-16 06:02:00,
2013-02-16 00:11:00,38.0,18.0,30.51,NNE,33,3.0,4.0,44,0.00,,,-99.99,,2013-02-16 06:11:00,
2013-02-16 00:21:00,38.0,19.0,30.51,North,6,2.0,4.0,45,0.00,,,-99.99,,2013-02-16 06:21:00,
2013-02-16 00:32:00,37.0,19.0,30.51,NNW,340,2.0,4.0,47,0.00,,,-99.99,,2013-02-16 06:32:00,
2013-02-16 00:42:00,37.0,19.0,30.51,NNW,340,2.0,4.0,47,0.00,,,-99.99,,2013-02-16 06:42:00,
2013-02-16 00:51:00,36.0,18.0,30.52,NNW,333,2.0,3.0,47,0.00,,,-99.99,,2013-02-16 06:51:00,
2013-02-16 01:02:00,36.0,18.0,30.52,NNW,333,2.0,3.0,47,0.00,,,-99.99,,2013-02-16 07:02:00,
2013-02-16 01:11:00,36.0,18.0,30.52,NNW,333,2.0,3.0,47,0.00,,,-99.99,,2013-02-16 07:11:00,
2013-02-16 01:21:00,34.0,18.0,30.52,North,349,0.0,3.0,51,0.00,,,-99.99,,2013-02-16 07:21:00,
2013-02-16 01:31:00,35.0,18.0,30.52,NW,322,1.0,1.0,50,0.00,,,-99.99,,2013-02-16 07:31:00,
2013-02-16 01:42:00,35.0,18.0,30.52,NW,322,1.0,1.0,50,0.00,,,-99.99,,2013-02-16 07:42:00,
2013-02-16 01:53:00,35.0,18.0,30.52,North,354,1.0,3.0,50,0.00,,,-99.99,,2013-02-16 07:53:00,
2013-02-16 02:01:00,35.0,18.0,30.52,North,354,1.0,3.0,50,0.00,,,-99.99,,2013-02-16 08:01:00,
2013-02-16 02:11:00,35.0,18.0,30.52,North,354,1.0,3.0,50,0.00,,,-99.99,,2013-02-16 08:11:00,
2013-02-16 02:21:00,35.0,18.0,30.52,North,354,1.0,3.0,50,0.00,,,-99.99,,2013-02-16 08:21:00,
2013-02-16 02:31:00,34.0,18.0,30.52,NNW,338,0.0,0.0,51,0.00,,,-99.99,,2013-02-16 08:31:00,
2013-02-16 02:41:00,34.0,18.0,30.52,NNW,338,0.0,0.0,51,0.00,,,-99.99,,2013-02-16 08:41:00,
2013-02-16 02:52:00,33.0,18.0,30.52,NNW,344,0.0,2.0,53,0.00,,,-99.99,,2013-02-16 08:52:00,
2013-02-16 03:01:00,33.0,18.0,30.52,NW,315,1.0,1.0,54,0.00,,,-99.99,,2013-02-16 09:01:00,
2013-02-16 03:11:00,33.0,18.0,30.52,NW,315,1.0,1.0,54,0.00,,,-99.99,,2013-02-16 09:11:00,
2013-02-16 03:21:00,33.0,18.0,30.53,NW,324,1.0,2.0,54,0.00,,,-99.99,,2013-02-16 09:21:00,
2013-02-16 03:31:00,32.0,18.0,30.53,NW,326,1.0,1.0,55,0.00,,,-99.99,,2013-02-16 09:31:00,
2013-02-16 03:42:00,32.0,18.0,30.53,NW,326,1.0,1.0,55,0.00,,,-99.99,,2013-02-16 09:42:00,
2013-02-16 03:52:00,32.0,18.0,30.54,NNW,340,3.0,3.0,56,0.00,,,-99.99,,2013-02-16 09:52:00,
2013-02-16 04:01:00,33.0,19.0,30.54,NNW,338,3.0,4.0,55,0.00,,,-99.99,,2013-02-16 10:01:00,
2013-02-16 04:11:00,34.0,19.0,30.54,North,6,3.0,5.0,54,0.00,,,-99.99,,2013-02-16 10:11:00,
2013-02-16 04:21:00,34.0,19.0,30.54,North,6,3.0,5.0,54,0.00,,,-99.99,,2013-02-16 10:21:00,
2013-02-16 04:31:00,34.0,19.0,30.55,NNE,16,3.0,4.0,53,0.00,,,-99.99,,2013-02-16 10:31:00,
2013-02-16 04:41:00,34.0,19.0,30.55,NNE,16,3.0,4.0,53,0.00,,,-99.99,,2013-02-16 10:41:00,
2013-02-16 04:52:00,34.0,19.0,30.54,North,4,3.0,5.0,53,0.00,,,-99.99,,2013-02-16 10:52:00,
2013-02-16 05:02:00,34.0,19.0,30.55,NNW,337,5.0,6.0,54,0.00,,,-99.99,,2013-02-16 11:02:00,
2013-02-16 05:11:00,34.0,19.0,30.55,NNW,337,5.0,6.0,54,0.00,,,-99.99,,2013-02-16 11:11:00,
2013-02-16 05:22:00,33.0,18.0,30.55,North,6,3.0,7.0,54,0.00,,,-99.99,,2013-02-16 11:22:00,
2013-02-16 05:32:00,33.0,19.0,30.55,NNE,12,2.0,3.0,56,0.00,,,-99.99,,2013-02-16 11:32:00,
2013-02-16 05:42:00,33.0,19.0,30.55,NNE,12,2.0,3.0,56,0.00,,,-99.99,,2013-02-16 11:42:00,
2013-02-16 05:52:00,32.0,18.0,30.55,North,358,0.0,3.0,56,0.00,,,-99.99,,2013-02-16 11:52:00,
2013-02-16 06:01:00,32.0,19.0,30.56,NNW,347,1.0,2.0,57,0.00,,,-99.99,,2013-02-16 12:01:00,
2013-02-16 06:12:00,32.0,19.0,30.56,NNW,347,1.0,2.0,57,0.00,,,-99.99,,2013-02-16 12:12:00,
2013-02-16 06:22:00,30.0,17.0,30.56,SW,214,2.0,2.0,59,0.00,,,-99.99,,2013-02-16 12:22:00,
2013-02-16 06:32:00,29.0,19.0,30.56,SW,222,0.0,2.0,65,0.00,,,-99.99,,2013-02-16 12:32:00,
2013-02-16 06:42:00,29.0,19.0,30.56,SW,222,0.0,2.0,65,0.00,,,-99.99,,2013-02-16 12:42:00,
2013-02-16 06:52:00,30.0,19.0,30.56,NNW,346,1.0,3.0,62,0.00,,,-99.99,,2013-02-16 12:52:00,
2013-02-16 07:02:00,30.0,19.0,30.56,NNW,346,1.0,3.0,62,0.00,,,-99.99,,2013-02-16 13:02:00,
2013-02-16 07:11:00,29.0,18.0,30.57,NNW,345,0.0,1.0,64,0.00,,,-99.99,,2013-02-16 13:11:00,
2013-02-16 07:21:00,29.0,18.0,30.57,NNW,345,0.0,1.0,64,0.00,,,-99.99,,2013-02-16 13:21:00,
2013-02-16 07:31:00,27.0,18.0,30.57,SSW,204,0.0,2.0,68,0.00,,,-99.99,,2013-02-16 13:31:00,
2013-02-16 07:41:00,27.0,18.0,30.57,SSW,204,0.0,2.0,68,0.00,,,-99.99,,2013-02-16 13:41:00,
2013-02-16 07:51:00,26.0,19.0,30.58,SSW,210,1.0,3.0,73,0.00,,,-99.99,,2013-02-16 13:51:00,
2013-02-16 08:01:00,27.0,20.0,30.58,SW,215,0.0,0.0,73,0.00,,,-99.99,,2013-02-16 14:01:00,
2013-02-16 08:11:00,27.0,20.0,30.58,SW,215,0.0,0.0,73,0.00,,,-99.99,,2013-02-16 14:11:00,
2013-02-16 08:21:00,29.0,20.0,30.59,SW,232,0.0,1.0,69,0.00,,,-99.99,,2013-02-16 14:21:00,
2013-02-16 08:32:00,31.0,21.0,30.60,SSE,156,0.0,2.0,67,0.00,,,-99.99,,2013-02-16 14:32:00,
2013-02-16 08:41:00,31.0,21.0,30.60,SSE,156,0.0,2.0,67,0.00,,,-99.99,,2013-02-16 14:41:00,
2013-02-16 08:52:00,32.0,21.0,30.61,SW,235,2.0,5.0,63,0.00,,,-99.99,,2013-02-16 14:52:00,
2013-02-16 09:01:00,34.0,22.0,30.60,West,266,2.0,5.0,62,0.00,,,-99.99,,2013-02-16 15:01:00,
2013-02-16 09:11:00,34.0,22.0,30.60,West,266,2.0,5.0,62,0.00,,,-99.99,,2013-02-16 15:11:00,
2013-02-16 09:21:00,36.0,23.0,30.60,SW,232,3.0,5.0,58,0.00,,,-99.99,,2013-02-16 15:21:00,
2013-02-16 09:32:00,36.0,23.0,30.60,SW,232,3.0,5.0,58,0.00,,,-99.99,,2013-02-16 15:32:00,
2013-02-16 09:41:00,36.0,23.0,30.60,SW,232,3.0,5.0,58,0.00,,,-99.99,,2013-02-16 15:41:00,
2013-02-16 09:52:00,40.0,23.0,30.61,SW,228,5.0,7.0,50,0.00,,,-99.99,,2013-02-16 15:52:00,
2013-02-16 10:01:00,42.0,23.0,30.61,WSW,249,5.0,8.0,46,0.00,,,-99.99,,2013-02-16 16:01:00,
2013-02-16 10:11:00,42.0,23.0,30.61,WSW,249,5.0,8.0,46,0.00,,,-99.99,,2013-02-16 16:11:00,
2013-02-16 10:21:00,44.0,22.0,30.61,West,267,8.0,10.0,41,0.00,,,-99.99,,2013-02-16 16:21:00,
2013-02-16 10:32:00,46.0,22.0,30.60,SW,214,2.0,12.0,38,0.00,,,-99.99,,2013-02-16 16:32:00,
2013-02-16 10:41:00,46.0,22.0,30.60,SW,214,2.0,12.0,38,0.00,,,-99.99,,2013-02-16 16:41:00,
2013-02-16 10:52:00,48.0,21.0,30.59,West,264,4.0,9.0,34,0.00,,,-99.99,,2013-02-16 16:52:00,
2013-02-16 11:01:00,50.0,23.0,30.58,WSW,249,3.0,9.0,34,0.00,,,-99.99,,2013-02-16 17:01:00,
2013-02-16 11:11:00,50.0,23.0,30.58,WSW,249,3.0,9.0,34,0.00,,,-99.99,,2013-02-16 17:11:00,
2013-02-16 11:21:00,50.0,23.0,30.58,WSW,249,3.0,9.0,34,0.00,,,-99.99,,2013-02-16 17:21:00,
2013-02-16 11:32:00,50.0,23.0,30.58,WSW,249,3.0,9.0,34,0.00,,,-99.99,,2013-02-16 17:32:00,
2013-02-16 11:41:00,50.0,23.0,30.58,WSW,249,3.0,9.0,34,0.00,,,-99.99,,2013-02-16 17:41:00,
2013-02-16 11:52:00,54.0,23.0,30.55,WSW,245,5.0,8.0,30,0.00,,,-99.99,,2013-02-16 17:52:00,
2013-02-16 12:02:00,54.0,23.0,30.55,WSW,245,5.0,8.0,30,0.00,,,-99.99,,2013-02-16 18:02:00,
2013-02-16 12:11:00,55.0,23.0,30.54,South,181,3.0,7.0,28,0.00,,,-99.99,,2013-02-16 18:11:00,
2013-02-16 12:21:00,55.0,23.0,30.54,South,181,3.0,7.0,28,0.00,,,-99.99,,2013-02-16 18:21:00,
2013-02-16 12:33:00,55.0,23.0,30.53,WSW,242,7.0,9.0,28,0.00,,,-99.99,,2013-02-16 18:33:00,
2013-02-16 12:42:00,55.0,23.0,30.53,WSW,242,7.0,9.0,28,0.00,,,-99.99,,2013-02-16 18:42:00,
2013-02-16 12:51:00,57.0,23.0,30.51,West,276,6.0,7.0,27,0.00,,,-99.99,,2013-02-16 18:51:00,
2013-02-16 13:02:00,57.0,23.0,30.51,West,276,6.0,7.0,27,0.00,,,-99.99,,2013-02-16 19:02:00,
2013-02-16 13:11:00,57.0,23.0,30.51,West,276,6.0,7.0,27,0.00,,,-99.99,,2013-02-16 19:11:00,
2013-02-16 13:21:00,58.0,23.0,30.48,SW,235,7.0,11.0,26,0.00,,,-99.99,,2013-02-16 19:21:00,
2013-02-16 13:32:00,58.0,23.0,30.46,WSW,242,2.0,12.0,26,0.00,,,-99.99,,2013-02-16 19:32:00,
2013-02-16 13:42:00,58.0,23.0,30.46,WSW,242,2.0,12.0,26,0.00,,,-99.99,,2013-02-16 19:42:00,
2013-02-16 13:52:00,59.0,22.0,30.45,WSW,246,4.0,9.0,24,0.00,,,-99.99,,2013-02-16 19:52:00,
2013-02-16 14:01:00,59.0,23.0,30.43,North,351,1.0,11.0,25,0.00,,,-99.99,,2013-02-16 20:01:00,
2013-02-16 14:11:00,59.0,23.0,30.43,North,351,1.0,11.0,25,0.00,,,-99.99,,2013-02-16 20:11:00,
2013-02-16 14:21:00,59.0,23.0,30.43,North,351,1.0,11.0,25,0.00,,,-99.99,,2013-02-16 20:21:00,
2013-02-16 14:32:00,61.0,23.0,30.40,WNW,285,3.0,12.0,23,0.00,,,-99.99,,2013-02-16 20:32:00,
2013-02-16 14:42:00,61.0,23.0,30.39,West,277,6.0,12.0,23,0.00,,,-99.99,,2013-02-16 20:42:00,
2013-02-16 14:52:00,61.0,23.0,30.39,West,277,6.0,12.0,23,0.00,,,-99.99,,2013-02-16 20:52:00,
2013-02-16 15:02:00,61.0,24.0,30.37,SW,224,3.0,10.0,24,0.00,,,-99.99,,2013-02-16 21:02:00,
2013-02-16 15:11:00,61.0,24.0,30.37,SW,224,3.0,10.0,24,0.00,,,-99.99,,2013-02-16 21:11:00,
2013-02-16 15:21:00,61.0,24.0,30.37,West,267,7.0,12.0,24,0.00,,,-99.99,,2013-02-16 21:21:00,
2013-02-16 15:31:00,62.0,23.0,30.36,WNW,297,6.0,11.0,22,0.00,,,-99.99,,2013-02-16 21:31:00,
2013-02-16 15:41:00,62.0,23.0,30.36,WNW,297,6.0,11.0,22,0.00,,,-99.99,,2013-02-16 21:41:00,
2013-02-16 15:52:00,62.0,24.0,30.35,WSW,249,2.0,9.0,23,0.00,,,-99.99,,2013-02-16 21:52:00,
2013-02-16 16:01:00,63.0,24.0,30.34,WSW,252,2.0,11.0,22,0.00,,,-99.99,,2013-02-16 22:01:00,
2013-02-16 16:11:00,63.0,24.0,30.34,WSW,252,2.0,11.0,22,0.00,,,-99.99,,2013-02-16 22:11:00,
2013-02-16 16:21:00,63.0,24.0,30.33,SW,224,9.0,13.0,22,0.00,,,-99.99,,2013-02-16 22:21:00,
2013-02-16 16:32:00,63.0,24.0,30.33,SW,232,3.0,8.0,22,0.00,,,-99.99,,2013-02-16 22:32:00,
2013-02-16 16:42:00,63.0,24.0,30.33,SW,232,3.0,8.0,22,0.00,,,-99.99,,2013-02-16 22:42:00,
2013-02-16 16:52:00,63.0,24.0,30.33,SW,232,3.0,8.0,22,0.00,,,-99.99,,2013-02-16 22:52:00,
2013-02-16 17:02:00,64.0,23.0,30.32,WNW,302,4.0,7.0,21,0.00,,,-99.99,,2013-02-16 23:02:00,
2013-02-16 17:11:00,64.0,24.0,30.31,WSW,257,3.0,10.0,22,0.00,,,-99.99,,2013-02-16 23:11:00,
2013-02-16 17:21:00,64.0,24.0,30.31,WSW,257,3.0,10.0,22,0.00,,,-99.99,,2013-02-16 23:21:00,
2013-02-16 17:31:00,64.0,23.0,30.30,WSW,240,7.0,8.0,21,0.00,,,-99.99,,2013-02-16 23:31:00,
2013-02-16 17:42:00,64.0,23.0,30.30,WSW,240,7.0,8.0,21,0.00,,,-99.99,,2013-02-16 23:42:00,
2013-02-16 17:52:00,64.0,22.0,30.30,West,262,4.0,7.0,20,0.00,,,-99.99,,2013-02-16 23:52:00,
2013-02-16 18:02:00,65.0,23.0,30.29,WNW,283,2.0,5.0,20,0.00,,,-99.99,,2013-02-17 00:02:00,
2013-02-16 18:12:00,65.0,23.0,30.29,WNW,283,2.0,5.0,20,0.00,,,-99.99,,2013-02-17 00:12:00,
2013-02-16 18:21:00,64.0,22.0,30.29,SW,219,7.0,7.0,20,0.00,,,-99.99,,2013-02-17 00:21:00,
2013-02-16 18:31:00,63.0,21.0,30.29,WSW,238,2.0,6.0,20,0.00,,,-99.99,,2013-02-17 00:31:00,
2013-02-16 18:41:00,63.0,21.0,30.29,WSW,238,2.0,6.0,20,0.00,,,-99.99,,2013-02-17 00:41:00,
2013-02-16 18:52:00,61.0,22.0,30.28,WSW,245,1.0,4.0,22,0.00,,,-99.99,,2013-02-17 00:52:00,
2013-02-16 19:01:00,59.0,21.0,30.29,SW,222,1.0,2.0,23,0.00,,,-99.99,,2013-02-17 01:01:00,
2013-02-16 19:11:00,59.0,21.0,30.29,SW,222,1.0,2.0,23,0.00,,,-99.99,,2013-02-17 01:11:00,
2013-02-16 19:21:00,58.0,22.0,30.29,SSW,208,0.0,2.0,25,0.00,,,-99.99,,2013-02-17 01:21:00,
2013-02-16 19:31:00,57.0,22.0,30.29,SSW,211,1.0,2.0,25,0.00,,,-99.99,,2013-02-17 01:31:00,
2013-02-16 19:41:00,57.0,22.0,30.29,SSW,211,1.0,2.0,25,0.00,,,-99.99,,2013-02-17 01:41:00,
2013-02-16 19:52:00,57.0,22.0,30.29,SSW,210,0.0,2.0,25,0.00,,,-99.99,,2013-02-17 01:52:00,
2013-02-16 20:01:00,56.0,22.0,30.28,SE,143,1.0,1.0,26,0.00,,,-99.99,,2013-02-17 02:01:00,
2013-02-16 20:11:00,56.0,22.0,30.28,SE,143,1.0,1.0,26,0.00,,,-99.99,,2013-02-17 02:11:00,
2013-02-16 20:21:00,55.0,22.0,30.28,SE,141,1.0,1.0,27,0.00,,,-99.99,,2013-02-17 02:21:00,
2013-02-16 20:31:00,55.0,23.0,30.28,SE,131,1.0,2.0,28,0.00,,,-99.99,,2013-02-17 02:31:00,
2013-02-16 20:41:00,55.0,23.0,30.28,SE,131,1.0,2.0,28,0.00,,,-99.99,,2013-02-17 02:41:00,
2013-02-16 20:52:00,54.0,22.0,30.28,SE,145,1.0,2.0,28,0.00,,,-99.99,,2013-02-17 02:52:00,
2013-02-16 21:01:00,53.0,22.0,30.28,SSE,152,0.0,2.0,29,0.00,,,-99.99,,2013-02-17 03:01:00,
2013-02-16 21:11:00,51.0,21.0,30.29,SSE,153,0.0,1.0,31,0.00,,,-99.99,,2013-02-17 03:11:00,
2013-02-16 21:21:00,51.0,21.0,30.29,SSE,153,0.0,1.0,31,0.00,,,-99.99,,2013-02-17 03:21:00,
2013-02-16 21:31:00,50.0,21.0,30.29,WSW,250,0.0,0.0,32,0.00,,,-99.99,,2013-02-17 03:31:00,
2013-02-16 21:40:00,51.0,23.0,30.29,West,281,2.0,4.0,33,0.00,,,-99.99,,2013-02-17 03:40:00,
2013-02-16 21:42:00,50.0,21.0,30.29,WSW,250,0.0,0.0,32,0.00,,,-99.99,,2013-02-17 03:42:00,
2013-02-16 21:52:00,50.0,21.0,30.29,WSW,250,0.0,0.0,32,0.00,,,-99.99,,2013-02-17 03:52:00,
2013-02-16 22:01:00,51.0,23.0,30.29,West,281,2.0,4.0,33,0.00,,,-99.99,,2013-02-17 04:01:00,
2013-02-16 22:11:00,51.0,23.0,30.29,West,281,2.0,4.0,33,0.00,,,-99.99,,2013-02-17 04:11:00,
2013-02-16 22:21:00,51.0,23.0,30.29,West,281,2.0,4.0,33,0.00,,,-99.99,,2013-02-17 04:21:00,
2013-02-16 22:31:00,51.0,23.0,30.29,West,281,2.0,4.0,33,0.00,,,-99.99,,2013-02-17 04:31:00,
2013-02-16 22:52:00,49.0,23.0,30.29,SW,231,1.0,3.0,35,0.00,,,-99.99,,2013-02-17 04:52:00,
2013-02-16 23:02:00,48.0,23.0,30.29,SW,225,1.0,2.0,37,0.00,,,-99.99,,2013-02-17 05:02:00,
2013-02-16 23:12:00,48.0,23.0,30.28,SW,222,1.0,2.0,37,0.00,,,-99.99,,2013-02-17 05:12:00,
2013-02-16 23:22:00,48.0,23.0,30.28,SW,222,1.0,2.0,37,0.00,,,-99.99,,2013-02-17 05:22:00,
2013-02-16 23:33:00,47.0,23.0,30.27,WSW,253,1.0,1.0,38,0.00,,,-99.99,,2013-02-17 05:33:00,
2013-02-16 23:42:00,47.0,23.0,30.27,WSW,253,1.0,1.0,38,0.00,,,-99.99,,2013-02-17 05:42:00,
2013-02-16 23:52:00,47.0,23.0,30.27,WSW,253,1.0,1.0,38,0.00,,,-99.99,,2013-02-17 05:52:00,